Yatton Keynell, United Kingdom

1:42 PM GMT on March 22, 2019 (GMT +0000)
Yatton Keynell

Weather History for 03740 - June, 2003

Change the Weather History Date:

Tuesday, June 17, 2003

  Actual Average Record
Temperature  
Mean Temperature 64 °F -  
Max Temperature 71 °F 67 °F - ()
Min Temperature 57 °F 51 °F - ()
Degree Days  
Heating Degree Days 1    
Growing Degree Days 14 (Base 50)    
Moisture  
Dew Point 52 °F    
Average Humidity 66    
Maximum Humidity 82    
Minimum Humidity 55    
Precipitation  
Precipitation 0.00 in 0.07 in - ()
Sea Level Pressure  
Sea Level Pressure 29.90 in    
Wind  
Wind Speed 6 mph ()    
Max Wind Speed 18 mph    
Max Gust Speed -    
Visibility 6.2 miles    
Events      
T = Trace of Precipitation, MM = Missing Value Source: Averaged Metar Reports

Daily Weather History Graph

Daily Weather History Graph

Search for Another Location

Airport or City:

Astronomy

Jun. 17, 2003 Rise Set
Actual Time 4:50 AM BST 9:27 PM BST
Civil Twilight 4:02 AM BST 10:15 PM BST
Nautical Twilight 2:48 AM BST 11:29 PM BST
Astronomical Twilight 1:41 AM BST 12:36 AM BST
Moon 12:00 AM BST (6/17) 7:38 AM BST (6/17)
Length of Visible Light 18h 12m
Length of Day
16h 37m
Waning Gibbous, 88% of the Moon is Illuminated
Jun 17
Waning Gibbous
Jun 21
Last Quarter
Jun 29
New
Jul 7
First Quarter
Jul 13
Full

Hourly Weather History & Observations

Time (BST) Temp. Dew Point Humidity Pressure Visibility Wind Dir Wind Speed Gust Speed Precip Events Conditions
12:50 AM 59.0 °F 42.8 °F 55% 29.89 in - South 8.1 mph - N/A   Clear
1:50 AM 59.0 °F 44.6 °F 59% 29.89 in - South 5.8 mph - N/A   Clear
2:50 AM 59.0 °F 46.4 °F 63% 29.89 in - South 2.3 mph - N/A   Clear
3:50 AM 59.0 °F 46.4 °F 63% 29.86 in 6.2 mi South 3.5 mph - N/A   Scattered Clouds
4:50 AM 57.2 °F 44.6 °F 63% 29.86 in 6.2 mi NNE 2.3 mph - N/A   Mostly Cloudy
5:50 AM 57.2 °F 44.6 °F 63% 29.86 in 6.2 mi NE 2.3 mph - N/A   Scattered Clouds
6:50 AM 59.0 °F 50.0 °F 72% 29.86 in - South 2.3 mph - N/A   Clear
7:50 AM 60.8 °F 53.6 °F 77% 29.86 in - South 1.2 mph - N/A   Clear
8:50 AM 59.0 °F 50.0 °F 72% 29.86 in - South 3.5 mph - N/A   Clear
9:50 AM 62.6 °F 50.0 °F 63% 29.86 in - SSW 2.3 mph - N/A   Clear
10:50 AM 66.2 °F 53.6 °F 64% 29.86 in - West 3.5 mph - N/A   Clear
11:50 AM 68.0 °F 53.6 °F 60% 29.86 in - WNW 4.6 mph - N/A   Clear
12:50 PM 69.8 °F 55.4 °F 60% 29.89 in 6.2 mi WNW 6.9 mph - N/A   Mostly Cloudy
1:50 PM 71.6 °F 57.2 °F 60% 29.86 in 6.2 mi West 9.2 mph - N/A   Scattered Clouds
2:50 PM 71.6 °F 57.2 °F 60% 29.89 in 6.2 mi West 15.0 mph - N/A   Scattered Clouds
3:50 PM 71.6 °F 55.4 °F 57% 29.89 in 6.2 mi WSW 13.8 mph - N/A   Partly Cloudy
4:50 PM 69.8 °F 55.4 °F 60% 29.89 in 6.2 mi WSW 16.1 mph - N/A   Scattered Clouds
5:50 PM 69.8 °F 55.4 °F 60% 29.89 in 6.2 mi West 18.4 mph - N/A   Partly Cloudy
6:50 PM 66.2 °F 55.4 °F 68% 29.92 in - West 18.4 mph - N/A   Clear
7:50 PM 64.4 °F 55.4 °F 73% 29.95 in 6.2 mi WSW 13.8 mph - N/A   Mostly Cloudy
8:50 PM 60.8 °F 53.6 °F 77% 29.98 in 6.2 mi WSW 10.4 mph - N/A   Mostly Cloudy
9:50 PM 59.0 °F 53.6 °F 82% 30.01 in 6.2 mi WSW 9.2 mph - N/A   Mostly Cloudy
10:50 PM 59.0 °F 51.8 °F 77% 30.01 in 6.2 mi WSW 10.4 mph - N/A   Mostly Cloudy
11:50 PM 57.2 °F 51.8 °F 82% 30.01 in 6.2 mi WSW 12.7 mph - N/A   Mostly Cloudy